Flag for Bahrain Weather past 2 weeks in Manama, Bahrain

Now
86 °F

Sunny.


Feels Like: 88 °F
Forecast: 83 / 91 °F
Wind: 20 mph from Northwest

Location: Bahrain International Airport

Current Time: Oct 24, 2014 at 12:39:52 PM

Latest Report: Oct 24, 2014 at 12:00 PM


Visibility: 10 mi

Pressure: 29.92 "Hg

Humidity: 52%

Dew point: 66 °F

Location of ManamaLocation

Historic Weather in Manama — Graph

°F

Manama temperature yesterday

Maximum temperature yesterday: 86 °F (at 10:00 AM)
Minimum temperature yesterday: 81 °F (at 12:00 AM)
Average temperature yesterday: 83 °F

Past Weeks' High & Low Weather Summary

 TemperatureHumidityPressure
High100 °F (Oct 20, 2:00 PM)75% (Oct 17, 6:00 AM)30.04 "Hg (Oct 17, 6:00 AM)
Low79 °F (Oct 24, 12:00 AM)17% (Oct 20, 2:00 PM)29.80 "Hg (Oct 13, 2:00 AM)
Average88 °F54%29.89 "Hg
* Reported Oct 9 11:00 AM — Oct 24 11:00 AM, Manama, Weather by CustomWeather, © 2014

Note: Actual official high and low records may vary slightly from our data, if they occured in-between our weather recording intervals... More about our weather records

Advertising

Manama weather history for previous 24 hours

 ConditionsComfort  
Time TempWeatherWind HumidityBarometerVisibility
11:00 AM
Oct 24
84 °FSunny.16 mph58%29.95 "Hg10 mi
10:00 AM84 °FSunny.15 mph55%29.95 "Hg10 mi
9:00 AM81 °FSunny.16 mph62%29.95 "Hg10 mi
8:00 AM81 °FSunny.12 mph62%29.95 "Hg10 mi
7:00 AM79 °FSunny.9 mph70%29.92 "Hg10 mi
6:00 AM79 °FSunny.9 mph58%29.92 "Hg10 mi
5:00 AM79 °FClear.13 mph54%29.89 "Hg10 mi
4:00 AM79 °FClear.10 mph54%29.89 "Hg10 mi
3:00 AM79 °FClear.10 mph54%29.89 "Hg10 mi
2:00 AM79 °FClear.12 mph65%29.92 "Hg10 mi
1:00 AM79 °FClear.13 mph61%29.92 "Hg10 mi
12:00 AM79 °FClear.14 mph61%29.92 "Hg10 mi
11:00 PM
Oct 23
81 °FClear.15 mph54%29.95 "Hg10 mi
10:00 PM81 °FClear.15 mph51%29.95 "Hg10 mi
9:00 PM81 °FClear.16 mph51%29.95 "Hg10 mi
8:00 PM81 °FClear.16 mph51%29.95 "Hg10 mi
7:00 PM82 °FClear.16 mph45%29.95 "Hg10 mi
6:00 PM82 °FClear.16 mph45%29.95 "Hg10 mi
5:00 PM82 °FSunny.17 mph45%29.95 "Hg10 mi
4:00 PM84 °FSunny.20 mph43%29.95 "Hg10 mi
3:00 PM84 °FSunny.21 mph43%29.95 "Hg10 mi
2:00 PM86 °FSunny.24 mph40%29.98 "Hg10 mi
1:00 PM86 °FSunny.22 mph38%29.98 "Hg10 mi
12:00 PM86 °FSunny.22 mph40%30.01 "Hg10 mi
Weather by CustomWeather, © 2014

See weather overviewHow to use our weather pages